Tracking 19245 objects as of 18-Aug-2018
HD Live streaming from Space Station
objects crossing your sky now

COSMOS 2354

Track COSMOS 2354 now!
10-day predictions
COSMOS 2354 is classified as:


NORAD ID: 25365
Int'l Code: 1998-036C
Perigee: 1,313.9 km
Apogee: 1,878.2 km
Inclination: 82.6 °
Period: 118.0 minutes
Semi major axis: 7967 km
RCS: 0.9905 m2 (medium)
Launch date: June 15, 1998
Source: Commonwealth of Independent States (former USSR) (CIS)
Launch site: PLESETSK MISSILE AND SPACE COMPLEX (PKMTR)

Satellites have a single simultaneous earth-space and space-earth channel.
aabbcc
Your satellite tracking list
Your tracking list is empty




NASA's NSSDC Master Catalog

Two Line Element Set (TLE):
1 25365U 98036C   18228.46943223 +.00000008 +00000-0 -29012-4 0  9998
2 25365 082.5793 239.6478 0354125 130.0969 344.8256 12.20840956898862
Source of the keplerian elements: AFSPC